| time (UTC) | temp F | wind direction | speed knots | gust knots | rain 1hr in | rain 24hr in | rain mn in | humidity % | barometer mb |
| 20260506093029 | 62 | 153 | 8.7 | 16.5 | 0.00 | 0.00 | 0.00 | 58 | 1012.0 |
| 20260506092027 | 61 | 143 | 2.6 | 7.8 | 0.00 | 0.00 | 0.00 | 63 | 1012.1 |
| 20260506091032 | 61 | 163 | 2.6 | 3.5 | 0.00 | 0.00 | 0.00 | 63 | 1012.2 |
| 20260506090027 | 61 | 129 | 0.9 | 2.6 | 0.00 | 0.00 | 0.00 | 63 | 1012.1 |
| 20260506085029 | 61 | 358 | 0.9 | 1.7 | 0.00 | 0.00 | 0.00 | 62 | 1011.8 |
| 20260506084028 | 60 | 32 | 1.7 | 3.5 | 0.00 | 0.00 | 0.00 | 64 | 1011.7 |
| 20260506083032 | 61 | 357 | 1.7 | 3.5 | 0.00 | 0.00 | 0.00 | 61 | 1011.7 |
| 20260506082029 | 61 | 72 | 0.0 | 1.7 | 0.00 | 0.00 | 0.00 | 60 | 1011.9 |
| 20260506081029 | 60 | 56 | 1.7 | 2.6 | 0.00 | 0.00 | 0.00 | 62 | 1011.9 |
| 20260506073033 | 55 | 51 | 0.9 | 1.7 | 0.00 | 0.00 | 0.00 | 68 | 1012.6 |
| 20260506072027 | 54 | 350 | 1.7 | 5.2 | 0.00 | 0.00 | 0.00 | 72 | 1012.9 |
| 20260506071029 | 54 | 7 | 1.7 | 3.5 | 0.00 | 0.00 | 0.00 | 72 | 1013.1 |
| 20260506062041 | 52 | 2 | 1.7 | 2.6 | 0.00 | 0.00 | 0.00 | 77 | 1013.3 |
| 20260506061016 | 51 | 56 | 0.0 | 0.9 | 0.00 | 0.00 | 0.00 | 78 | 1013.4 |
| 20260506051032 | 48 | 341 | 0.9 | 0.9 | 0.00 | 0.00 | 0.00 | 85 | 1014.0 |
| 20260506045029 | 47 | 22 | 0.9 | 0.9 | 0.00 | 0.00 | 0.00 | 85 | 1014.1 |
| 20260506044024 | 47 | 316 | 0.9 | 1.7 | 0.00 | 0.00 | 0.00 | 84 | 1014.3 |
| 20260506043016 | 47 | 0.0 | 0.0 | 0.00 | 0.00 | 0.00 | 84 | 1014.3 | |
| 20260506042021 | 47 | 314 | 0.0 | 1.7 | 0.00 | 0.00 | 0.00 | 84 | 1014.3 |
| 20260506041029 | 47 | 266 | 0.9 | 2.6 | 0.00 | 0.00 | 0.00 | 84 | 1014.3 |
| 20260506040024 | 47 | 16 | 0.0 | 1.7 | 0.00 | 0.00 | 0.00 | 84 | 1014.2 |
| 20260506035029 | 47 | 42 | 0.0 | 0.9 | 0.00 | 0.00 | 0.00 | 83 | 1014.2 |
| 20260506034029 | 46 | 343 | 0.0 | 0.9 | 0.00 | 0.00 | 0.00 | 85 | 1014.2 |
| 20260506033029 | 47 | 0 | 0.9 | 1.7 | 0.00 | 0.00 | 0.00 | 84 | 1014.2 |
| 20260506032017 | 48 | 336 | 0.9 | 1.7 | 0.00 | 0.00 | 0.00 | 82 | 1014.1 |
| 20260506031021 | 47 | 314 | 1.7 | 3.5 | 0.00 | 0.00 | 0.00 | 83 | 1014.3 |
| 20260506030021 | 49 | 32 | 0.9 | 2.6 | 0.00 | 0.00 | 0.00 | 80 | 1014.6 |
| 20260506025028 | 48 | 306 | 1.7 | 2.6 | 0.00 | 0.00 | 0.00 | 82 | 1014.8 |
| 20260506024032 | 48 | 139 | 0.0 | 1.7 | 0.00 | 0.00 | 0.00 | 81 | 1015.2 |
| 20260506023036 | 48 | 0.0 | 0.0 | 0.00 | 0.00 | 0.00 | 81 | 1015.1 | |
| 20260506022047 | 48 | 18 | 0.0 | 0.9 | 0.00 | 0.00 | 0.00 | 81 | 1015.1 |
| 20260506021029 | 48 | 311 | 0.9 | 1.7 | 0.00 | 0.00 | 0.00 | 81 | 1015.2 |
| 20260506020023 | 48 | 278 | 0.9 | 0.9 | 0.00 | 0.00 | 0.00 | 80 | 1015.3 |
| 20260506015033 | 48 | 298 | 0.9 | 0.9 | 0.00 | 0.00 | 0.00 | 80 | 1015.2 |
| 20260506014027 | 50 | 58 | 0.9 | 1.7 | 0.00 | 0.00 | 0.00 | 78 | 1015.0 |
| 20260506013030 | 49 | 249 | 1.7 | 2.6 | 0.00 | 0.00 | 0.00 | 79 | 1015.1 |
| 20260506012024 | 48 | 32 | 0.0 | 0.9 | 0.00 | 0.00 | 0.00 | 80 | 1015.1 |
| 20260506011029 | 49 | 263 | 0.9 | 1.7 | 0.00 | 0.00 | 0.00 | 79 | 1015.2 |
| 20260506010043 | 48 | 289 | 0.9 | 1.7 | 0.00 | 0.00 | 0.00 | 80 | 1015.3 |
| 20260506005032 | 49 | 0.0 | 0.0 | 0.00 | 0.00 | 0.00 | 78 | 1015.2 | |
| 20260506004027 | 50 | 237 | 0.0 | 0.9 | 0.00 | 0.00 | 0.00 | 76 | 1015.1 |
| 20260506003033 | 49 | 217 | 0.9 | 1.7 | 0.00 | 0.00 | 0.00 | 77 | 1015.0 |
| 20260506002028 | 50 | 103 | 0.9 | 1.7 | 0.00 | 0.00 | 0.00 | 76 | 1015.1 |
| 20260506001109 | 51 | 293 | 0.0 | 0.9 | 0.00 | 0.00 | 0.00 | 74 | 1015.0 |
| 20260506000023 | 51 | 315 | 0.9 | 1.7 | 0.00 | 0.00 | 0.00 | 74 | 1015.1 |
| 20260505235032 | 51 | 0.0 | 0.0 | 0.00 | 0.00 | 0.00 | 73 | 1015.1 | |
| 20260505234027 | 51 | 267 | 0.9 | 1.7 | 0.00 | 0.00 | 0.00 | 73 | 1015.1 |
| 20260505233029 | 53 | 312 | 0.0 | 1.7 | 0.00 | 0.00 | 0.00 | 69 | 1015.2 |
| 20260505232103 | 52 | 303 | 1.7 | 1.7 | 0.00 | 0.00 | 0.00 | 71 | 1015.1 |
| 20260505231052 | 54 | 349 | 0.9 | 1.7 | 0.00 | 0.00 | 0.00 | 66 | 1015.3 |
| 20260505230021 | 53 | 319 | 1.7 | 3.5 | 0.00 | 0.00 | 0.00 | 66 | 1015.1 |
| 20260505225030 | 53 | 339 | 1.7 | 2.6 | 0.00 | 0.00 | 0.00 | 67 | 1015.1 |
| 20260505224017 | 55 | 325 | 0.9 | 1.7 | 0.00 | 0.00 | 0.00 | 62 | 1015.0 |
| 20260505223019 | 55 | 321 | 1.7 | 2.6 | 0.00 | 0.00 | 0.00 | 63 | 1015.0 |
| 20260505222021 | 55 | 314 | 1.7 | 1.7 | 0.00 | 0.00 | 0.00 | 63 | 1014.7 |
| 20260505221017 | 55 | 323 | 0.9 | 1.7 | 0.00 | 0.00 | 0.00 | 64 | 1014.8 |
| 20260505220024 | 55 | 318 | 0.9 | 1.7 | 0.00 | 0.00 | 0.00 | 64 | 1014.6 |
| 20260505215032 | 55 | 335 | 1.7 | 1.7 | 0.00 | 0.00 | 0.00 | 63 | 1014.7 |
| 20260505214027 | 56 | 338 | 2.6 | 3.5 | 0.00 | 0.00 | 0.00 | 62 | 1014.7 |
| 20260505213050 | 56 | 1 | 1.7 | 3.5 | 0.00 | 0.00 | 0.00 | 61 | 1014.6 |
| 20260505212024 | 57 | 329 | 1.7 | 2.6 | 0.00 | 0.00 | 0.00 | 59 | 1014.5 |
| 20260505211028 | 58 | 318 | 2.6 | 3.5 | 0.00 | 0.00 | 0.00 | 57 | 1014.2 |
| 20260505210033 | 58 | 308 | 2.6 | 3.5 | 0.00 | 0.00 | 0.00 | 56 | 1014.2 |
| 20260505205032 | 58 | 311 | 3.5 | 5.2 | 0.00 | 0.00 | 0.00 | 56 | 1014.0 |
| 20260505204020 | 59 | 330 | 1.7 | 5.2 | 0.00 | 0.00 | 0.00 | 56 | 1013.8 |
| 20260505203029 | 59 | 141 | 1.7 | 3.5 | 0.00 | 0.00 | 0.00 | 55 | 1013.8 |
| 20260505202017 | 59 | 123 | 1.7 | 3.5 | 0.00 | 0.00 | 0.00 | 55 | 1013.8 |
| 20260505201030 | 59 | 155 | 1.7 | 3.5 | 0.00 | 0.00 | 0.00 | 55 | 1013.7 |
| 20260505200024 | 60 | 104 | 0.9 | 1.7 | 0.00 | 0.00 | 0.00 | 55 | 1013.5 |
| 20260505195021 | 60 | 179 | 1.7 | 3.5 | 0.00 | 0.00 | 0.00 | 54 | 1013.5 |
| 20260505194021 | 61 | 171 | 2.6 | 6.1 | 0.00 | 0.00 | 0.00 | 52 | 1013.4 |
| 20260505193016 | 62 | 150 | 2.6 | 6.1 | 0.00 | 0.00 | 0.00 | 51 | 1013.3 |
| 20260505192024 | 61 | 164 | 2.6 | 5.2 | 0.00 | 0.00 | 0.00 | 52 | 1013.2 |
| 20260505191032 | 61 | 174 | 1.7 | 3.5 | 0.00 | 0.00 | 0.00 | 52 | 1013.0 |
| 20260505190027 | 62 | 146 | 2.6 | 6.1 | 0.00 | 0.00 | 0.00 | 52 | 1013.0 |
| 20260505185030 | 62 | 156 | 3.5 | 7.0 | 0.00 | 0.00 | 0.00 | 52 | 1012.8 |
| 20260505184044 | 63 | 143 | 3.5 | 6.1 | 0.00 | 0.00 | 0.00 | 51 | 1012.7 |
| 20260505183048 | 64 | 160 | 3.5 | 7.0 | 0.00 | 0.00 | 0.00 | 47 | 1012.6 |
| 20260505182033 | 65 | 168 | 1.7 | 5.2 | 0.00 | 0.00 | 0.00 | 46 | 1012.6 |
| 20260505181036 | 66 | 161 | 5.2 | 8.7 | 0.00 | 0.00 | 0.00 | 44 | 1012.4 |
| 20260505180020 | 67 | 164 | 6.1 | 12.2 | 0.00 | 0.00 | 0.00 | 43 | 1012.5 |
| 20260505175109 | 66 | 160 | 5.2 | 9.6 | 0.00 | 0.00 | 0.00 | 44 | 1012.3 |
| 20260505174021 | 67 | 165 | 6.1 | 13.0 | 0.00 | 0.00 | 0.00 | 43 | 1012.3 |
| 20260505173030 | 67 | 163 | 7.8 | 15.6 | 0.00 | 0.00 | 0.00 | 42 | 1012.3 |
| 20260505172038 | 67 | 154 | 7.0 | 13.0 | 0.00 | 0.00 | 0.00 | 42 | 1012.3 |
| 20260505171019 | 67 | 171 | 6.1 | 12.2 | 0.00 | 0.00 | 0.00 | 42 | 1012.3 |
| 20260505170021 | 68 | 162 | 7.8 | 15.6 | 0.00 | 0.00 | 0.00 | 41 | 1012.4 |
| 20260505165056 | 69 | 155 | 7.0 | 15.6 | 0.00 | 0.00 | 0.00 | 40 | 1012.3 |
| 20260505164113 | 69 | 160 | 7.0 | 13.0 | 0.00 | 0.00 | 0.00 | 40 | 1012.5 |
| 20260505163017 | 69 | 154 | 8.7 | 20.0 | 0.00 | 0.00 | 0.00 | 40 | 1012.6 |
| 20260505162053 | 68 | 162 | 7.0 | 12.2 | 0.00 | 0.00 | 0.00 | 40 | 1012.5 |
| 20260505161017 | 69 | 168 | 5.2 | 12.2 | 0.00 | 0.00 | 0.00 | 40 | 1012.4 |
| 20260505153019 | 71 | 194 | 7.0 | 13.9 | 0.00 | 0.00 | 0.00 | 39 | 1012.5 |
| 20260505152101 | 70 | 172 | 7.0 | 13.9 | 0.00 | 0.00 | 0.00 | 40 | 1012.5 |
| 20260505151016 | 71 | 164 | 6.1 | 13.0 | 0.00 | 0.00 | 0.00 | 40 | 1012.5 |
| 20260505125019 | 70 | 158 | 5.2 | 13.9 | 0.00 | 0.00 | 0.00 | 37 | 1012.4 |
| 20260505124022 | 71 | 157 | 6.1 | 12.2 | 0.00 | 0.00 | 0.00 | 37 | 1012.4 |
| 20260505123017 | 71 | 198 | 5.2 | 9.6 | 0.00 | 0.00 | 0.00 | 37 | 1012.4 |
| 20260505122044 | 71 | 160 | 7.0 | 13.9 | 0.00 | 0.00 | 0.00 | 37 | 1012.3 |
| 20260505121033 | 71 | 183 | 6.1 | 13.0 | 0.00 | 0.00 | 0.00 | 38 | 1012.4 |
| 20260505120041 | 71 | 174 | 8.7 | 14.8 | 0.00 | 0.00 | 0.00 | 37 | 1012.5 |
| 20260505115049 | 71 | 161 | 8.7 | 14.8 | 0.00 | 0.00 | 0.00 | 37 | 1012.6 |
| 20260505114023 | 71 | 166 | 7.0 | 13.9 | 0.00 | 0.00 | 0.00 | 37 | 1012.7 |
| 20260505113036 | 71 | 188 | 6.1 | 14.8 | 0.00 | 0.00 | 0.00 | 36 | 1012.6 |
| 20260505112020 | 72 | 160 | 8.7 | 13.9 | 0.00 | 0.00 | 0.00 | 36 | 1012.4 |
| 20260505111029 | 72 | 165 | 7.8 | 16.5 | 0.00 | 0.00 | 0.00 | 35 | 1012.6 |
| 20260505102032 | 74 | 183 | 4.3 | 8.7 | 0.00 | 0.00 | 0.00 | 33 | 1012.5 |
| 20260505101029 | 74 | 164 | 6.1 | 13.0 | 0.00 | 0.00 | 0.00 | 33 | 1012.2 |
| 20260505100034 | 75 | 187 | 5.2 | 9.6 | 0.00 | 0.00 | 0.00 | 32 | 1012.5 |
| 20260505095030 | 74 | 163 | 7.0 | 12.2 | 0.00 | 0.00 | 0.00 | 32 | 1012.5 |